CAPE
1463 1823 3151 3432 3177 3043 3107 3595 3850 3584 3277 2928 2744 2855 2689 2151 1776 1794 1575 1623 1540 1675 1648 1657 1435 1356 1486 1206 1194 1411 1346 1919 1913 1800 1823 1707 1638 1484 1622 1266 910 649 986
1729 2048 3392 3374 3243 3256 3327 3659 3475 3261 3474 3135 2844 2604 2977 2700 1984 1766 1598 1667 1754 1490 1652 1431 1437 1241 1341 1307 1036 1079 1363 1868 1816 1774 1777 1763 1572 1326 1272 1063 1481 976 1037
1952 2004 2344 3384 3513 3459 3467 3530 3756 3539 3401 3367 3089 3095 2830 2864 2161 1853 1579 1767 1990 1636 1437 1669 1361 1264 1172 1296 1120 1415 1754 1844 1944 1914 1824 897 1068 1127 1102 1321 1190 1223 1068
1538 1721 1859 3350 3672 3717 3562 3801 3964 3712 3980 3644 3348 3361 2779 2840 2314 1674 1522 1387 1345 1541 1482 1517 1368 1288 1133 1222 1282 1463 1671 1617 1778 1848 1544 525 600 1248 1278 1322 1435 1171 1034
1488 1694 2337 3431 3736 3389 3531 3718 3921 3925 3950 3878 3760 3131 2581 2306 1932 1588 1380 1585 1893 1509 1496 1444 1474 1393 1314 1141 1450 1577 1562 1608 1770 1421 453 1300 973 1423 1497 1374 1153 1131 1233
1420 1724 2902 3576 3521 3520 3449 3556 3747 3859 3821 3663 3330 2711 2254 2161 1921 1665 2019 1845 1896 1493 1439 1405 1453 1443 1400 1221 1552 1494 1601 1649 1582 428 739 1038 1108 1555 1508 1111 1038 1248 1028
1587 2151 3535 3803 3813 3794 3791 3632 3728 3750 3510 3344 2882 2472 2306 2097 2066 2285 1958 1952 1826 1380 1574 1561 1516 1151 1276 1362 1446 1258 1658 1646 797 622 800 1194 1317 1803 1396 1246 1160 1164 1028
2166 2341 3285 3840 3953 4027 3528 3342 3382 3215 3246 2579 2652 2696 2669 2682 2685 2153 2058 1926 1989 1932 1753 1665 1573 1243 1343 1207 1284 1205 1146 1134 456 592 727 860 1376 1610 1327 1023 1115 1160 1034
2394 2498 3200 3394 2932 3664 3202 3164 3545 3156 3349 3241 3446 3191 2664 2255 2218 2228 2068 2005 1918 1902 1833 1812 1696 1499 1287 1162 1353 1046 877 1148 271 416 656 859 1950 1635 1325 1334 1235 998 1053
2901 2913 3153 2988 2690 2644 2795 3825 3406 3516 2569 2959 2538 2282 2435 2409 2201 1910 2057 2091 1984 1952 1961 1668 1626 1398 1436 1207 1177 962 864 856 382 453 727 1181 2292 1332 1426 1340 1357 1059 1146
2493 2489 2534 2765 2897 2797 2815 3125 2764 3097 2824 2088 1839 1946 1872 2060 1927 1808 1936 2218 2082 2095 2002 1888 1648 1684 1529 1278 1071 1071 688 305 505 440 454 1747 2301 1294 1386 1567 1318 1131 1069
2894 2780 2636 2639 2710 2735 2235 2583 2381 2857 2716 2036 1313 424 616 2074 1993 1614 1464 2139 2130 2024 2060 2082 1659 1771 1567 1033 1021 1084 809 1344 870 640 806 2089 2077 1348 1566 1588 1396 1148 1166
2715 2695 2707 2711 2702 2567 2519 2406 3861 2370 2466 1785 435 96 123 1184 2023 1323 1985 1585 1948 2071 1800 1931 1882 1368 780 1547 1555 1575 1552 956 1264 1025 1259 2230 2010 1584 1334 1479 1502 1329 1220
2378 2136 2142 2214 2417 2454 2349 1924 1839 2323 2400 1445 297 141 1548 2117 640 1352 2670 1894 2257 2740 1874 1651 1459 1688 1467 1165 1544 1625 1255 1102 1414 1077 1211 1905 2235 1743 1733 1360 1464 1502 1426
2288 2118 2059 2321 2659 2625 2762 2242 2132 1790 1705 1582 836 434 1146 1626 960 624 1864 2500 2306 2895 2198 1997 1665 1569 1446 1276 1215 1345 1332 1214 1253 889 1561 1617 2124 2317 1640 1420 1238 1476 1531
2430 2491 2459 2576 2758 2650 2466 2544 2410 2138 1746 1494 1381 1037 1235 829 1200 1252 848 1890 2291 3281 3419 1862 2214 1468 1387 1172 1080 1000 1052 1205 1170 1182 948 1776 2073 2455 1592 1276 1339 1373 1630
2486 2520 2529 2649 2366 2299 2100 2087 2140 1684 1661 1303 1374 1441 1295 1194 954 702 819 1828 1048 2770 2337 2294 1745 1531 1330 1139 1022 845 1028 1223 1063 1050 1236 1473 1300 2010 2164 2130 1566 1227 1548
2555 2499 2217 1581 1720 1912 1804 1697 1474 1301 1358 1311 1189 1054 1433 1424 1003 833 967 681 880 1995 2385 2392 1795 1143 1180 1316 1264 993 921 1185 1045 848 1136 1362 1416 1445 1289 1483 1482 1294 1008
2871 2745 2381 1917 1725 1780 1796 1682 1567 1361 1240 987 1305 1089 1108 1289 1081 1594 583 812 1010 1543 2580 2771 1416 1000 1284 1494 1413 1567 1330 1352 1079 917 865 1061 1149 1276 1045 1530 1258 1662 1070
2717 2690 2473 2000 1915 1963 1875 1927 1486 1284 1110 920 867 1011 962 1014 998 1409 594 1137 1178 1226 2264 2341 1836 1738 1750 1678 1314 1094 1141 1235 1359 1601 1162 819 1375 1087 1056 937 833 596 1455
2547 2446 2282 2115 2175 2872 2014 1634 1539 1371 1567 974 1107 1158 947 851 742 1352 1241 1696 1550 1140 1655 1816 2299 1574 1803 1694 1049 733 651 761 820 1161 1206 745 857 1083 883 1202 1147 1023 1227
2742 2546 2511 2357 2138 2445 2182 1761 1718 1638 1424 1538 920 910 879 855 899 771 1531 1522 1435 918 1891 1585 1697 2061 1626 1467 627 440 699 581 555 692 1079 587 1019 797 802 1068 1094 970 747
2852 2901 2698 2168 2515 1933 1626 1652 1625 1409 1155 1242 1274 1199 937 696 794 903 744 1681 1751 664 698 746 1535 1459 1589 1235 747 604 445 604 890 947 821 944 728 766 813 729 786 837 888
2724 2687 2674 2284 2282 1742 1446 1238 1136 609 829 925 1505 869 1104 702 753 824 948 1023 1324 649 1373 1090 1510 1720 1849 1005 558 515 643 572 227 624 580 945 830 757 729 729 650 693 893
2484 2629 2478 2447 2009 1591 1081 607 454 512 1061 636 1242 790 807 739 627 676 740 801 693 1509 317 1534 1192 1834 2591 444 590 467 498 271 139 99 164 381 763 660 471 701 424 424 552
2375 2140 2129 2021 1839 1268 982 425 760 456 839 857 799 666 722 408 829 695 544 919 1440 1127 1841 1416 1671 1128 1421 508 529 523 348 247 191 138 107 127 177 270 265 408 557 516 438
CIN
-1 0 0 0 0 0 -5 -6 -6 -8 -9 -10 -6 0 0 0 0 -3 -2 -1 0 0 0 -1 0 0 0 -1 -3 0 0 0 0 0 0 0 0 0 0 0 -5 -15 0
0 -2 0 0 0 0 -2 -7 -11 -15 -2 -7 -3 -2 0 0 0 -2 -2 0 0 0 0 0 -3 -1 0 0 -6 -6 0 -1 0 0 0 0 0 0 -2 -1 -1 0 0
0 -2 -4 0 0 0 0 -4 -5 -5 -5 -1 0 0 0 0 0 0 -1 0 0 0 0 0 0 -7 -3 -1 -2 0 0 0 0 0 -1 0 0 0 0 0 0 0 -1
-1 -6 -13 -1 0 0 0 0 0 -1 0 0 0 0 -1 0 0 -1 0 -1 0 0 0 0 0 -1 -1 0 0 0 0 0 0 -2 -1 -1 0 0 0 0 0 0 0
-9 -7 -1 -1 0 0 0 0 0 0 0 0 0 0 0 0 0 -1 -4 0 0 0 0 0 0 0 0 0 0 0 0 0 0 -11 -1 -2 0 0 0 0 0 0 -1
-3 0 -18 0 0 0 0 0 0 0 0 0 0 0 0 0 0 0 0 0 0 0 0 0 0 0 -1 0 0 0 0 0 -12 0 0 -3 0 0 0 0 0 0 0
-3 0 0 0 0 0 0 0 0 0 0 0 0 0 0 0 0 0 0 0 0 0 0 0 0 0 -1 0 0 0 0 -2 0 0 0 0 0 0 0 0 0 0 0
0 0 0 0 0 0 0 0 0 0 0 -2 0 0 0 0 0 0 0 0 0 0 -2 0 0 0 0 0 -2 0 -3 -6 -2 0 0 0 -13 0 0 0 0 0 0
0 -1 0 0 0 0 0 -3 0 0 0 0 0 0 -1 -1 0 0 0 0 0 -1 0 -1 0 0 0 0 -2 0 -5 -7 0 0 0 0 -1 0 0 0 0 0 0
0 0 0 0 0 0 0 0 -1 0 -6 0 0 -2 0 0 -3 -4 -2 -1 0 -1 0 -1 0 0 0 0 0 -2 -3 -9 -2 0 0 -3 0 0 0 0 0 0 0
0 0 0 0 0 0 0 0 -5 -1 -2 -3 -4 -1 -4 0 0 0 -2 -2 -1 0 0 -1 0 0 0 0 -1 -4 -9 0 0 0 0 -32 0 0 0 0 0 0 0
0 0 0 0 0 0 0 -1 0 0 -2 0 -37 -129 -27 -5 -8 -1 -4 -3 -1 0 0 0 -1 0 -7 0 0 -2 0 -3 -1 -1 0 -14 0 0 0 0 0 0 0
0 0 0 0 0 0 0 0 0 0 0 -5 -126 -35 -111 -1 -7 0 0 0 0 0 0 -1 0 0 -1 -2 -6 0 -4 -1 -1 0 -11 -3 0 0 0 0 -2 0 0
-7 -10 -17 -7 -1 0 0 0 0 0 0 -5 -160 -186 0 -1 -108 -25 0 0 0 0 -2 0 0 -1 -1 0 0 0 -1 0 0 0 -10 -4 0 0 0 0 -1 0 0
-16 -19 -21 -17 -4 0 0 0 0 0 0 0 -47 -108 -26 -9 -58 -127 -5 0 0 0 0 -1 -1 0 0 0 0 0 0 0 0 0 0 -8 0 0 -2 -1 0 0 0
-9 -12 -21 -14 -1 0 0 0 0 0 0 0 -1 -18 -11 -8 -24 -36 -80 0 0 0 0 0 0 0 0 0 0 0 0 0 0 0 0 -1 -1 0 -2 0 0 -1 0
-13 -16 -15 -12 -7 0 0 0 0 0 0 0 0 0 -5 -5 -11 -34 -68 -6 0 0 0 0 0 0 0 0 0 0 0 0 0 0 -1 -1 -1 -1 0 0 -3 -5 -1
-23 -33 -33 -34 -40 -10 0 0 0 0 0 0 0 0 0 0 0 -8 -1 -41 -7 0 -1 -2 0 0 0 0 0 0 0 0 0 0 0 0 -2 0 -6 -6 -6 -4 -3
-22 -30 -39 -50 -28 -21 0 0 0 0 0 0 0 0 0 0 0 0 -1 -17 -3 0 0 0 0 0 0 0 0 0 0 0 0 0 0 0 -3 -1 0 -14 -6 -3 -3
-27 -29 -39 -37 -19 -9 0 0 0 0 0 0 0 0 -1 0 0 0 0 0 -10 0 0 0 0 0 0 0 0 0 0 0 0 0 0 0 -4 -2 0 0 -2 -2 -5
-44 -41 -47 -30 -15 0 0 0 0 0 0 0 0 0 0 -7 0 0 0 0 0 -1 0 -1 0 0 0 0 0 0 0 0 0 0 0 0 0 0 -1 0 0 0 -5
-40 -36 -27 -13 0 0 -2 0 0 0 0 0 0 0 0 0 -1 0 0 0 0 -10 0 -1 0 0 0 0 0 0 0 0 0 0 0 0 0 0 0 0 0 0 0
-24 -18 -10 -1 0 -3 -7 0 0 0 0 0 0 0 0 0 -6 0 0 0 0 -25 -8 -13 0 0 0 0 0 0 0 0 0 0 0 0 0 0 0 0 0 0 0
-17 -7 0 0 0 0 0 0 0 0 0 0 0 0 0 0 0 0 0 0 -1 -29 -5 -8 0 0 0 0 0 0 0 -3 0 0 0 0 0 0 0 0 0 0 0
-23 -2 0 0 0 0 0 0 0 0 0 0 0 0 0 0 0 0 0 0 0 0 -39 0 0 0 0 0 0 0 0 0 -4 0 0 0 0 0 0 0 0 0 0
-19 -11 0 0 0 0 0 -1 0 0 0 0 0 0 0 0 0 0 0 -1 0 0 0 0 0 -3 -2 0 0 0 0 0 0 0 0 -1 0 0 0 0 0 0 0
Wind_Speed
11 15 10 10 7 7 9 8 12 17 18 16 13 12 12 8 8 6 4 7 7 3 7 6 4 6 6 6 7 3 3 2 4 6 6 7 9 10 10 12 17 9 9
15 20 15 13 9 9 12 15 16 18 22 21 17 11 12 8 7 5 5 7 6 2 5 5 3 7 7 7 6 3 2 2 3 4 6 6 8 11 12 12 3 9 10
15 17 16 14 14 12 13 15 16 18 21 20 19 11 11 8 6 5 5 7 1 1 2 3 4 8 7 7 5 3 2 2 3 4 10 8 8 11 11 10 12 13 11
13 13 13 15 14 12 12 14 16 20 20 19 16 11 14 10 4 5 4 6 4 3 2 0 3 7 6 7 5 4 4 4 3 7 14 4 8 11 12 13 14 14 12
11 12 11 12 13 13 11 12 14 17 17 18 14 15 13 12 5 3 3 5 3 3 3 1 5 4 6 6 5 5 4 4 3 11 2 4 3 9 12 12 13 15 16
9 11 14 12 12 12 12 12 15 15 15 16 13 11 13 13 9 3 5 2 1 4 5 3 3 4 5 5 4 6 9 5 5 2 3 7 6 11 13 11 11 11 14
11 9 13 13 13 12 11 10 10 14 12 12 7 10 9 6 8 5 5 1 3 4 7 3 4 5 5 5 4 6 8 2 4 5 5 7 9 10 12 9 10 12 14
15 12 13 14 14 16 16 14 10 11 12 11 10 10 8 9 7 7 6 4 4 5 7 5 5 3 3 3 3 7 8 6 5 4 6 7 13 9 11 11 11 11 13
15 10 13 14 12 15 15 15 14 12 12 14 16 17 15 12 11 8 8 7 6 7 8 7 7 4 4 3 3 7 8 6 2 2 5 8 10 11 10 11 12 13 14
18 15 13 11 12 13 13 13 13 12 12 15 18 21 21 17 17 10 12 11 9 9 9 9 7 6 6 5 4 6 6 3 2 7 2 13 11 11 11 10 12 14 15
18 16 14 14 14 11 9 11 12 11 18 9 14 27 23 22 16 14 17 15 12 13 9 9 8 6 6 5 4 4 6 1 3 7 5 16 10 10 11 11 12 13 16
19 17 16 16 16 16 12 12 10 11 20 20 22 28 33 30 23 22 21 18 15 15 11 9 7 6 1 6 5 3 1 5 6 5 10 14 7 10 12 12 14 14 15
18 15 15 16 17 19 19 14 15 12 14 18 24 nan 8 22 28 23 24 23 23 16 15 10 8 5 3 8 11 5 7 3 10 6 11 10 9 9 11 14 15 16 15
17 14 15 18 18 19 20 18 14 17 16 18 18 27 20 19 29 30 26 29 24 21 19 16 14 15 7 5 7 3 2 3 10 8 13 12 12 11 16 15 17 18 14
26 18 17 15 16 18 19 18 17 17 20 21 20 19 19 13 21 26 29 29 26 24 19 18 18 13 10 6 5 4 4 3 6 10 14 15 11 10 17 17 17 22 9
27 21 20 19 18 18 17 19 20 21 20 22 21 20 19 14 17 24 27 27 29 26 23 17 15 13 10 8 6 3 2 4 5 4 11 17 12 9 13 12 16 18 12
26 24 22 21 22 21 20 20 19 18 16 17 19 14 14 15 14 14 27 33 26 28 23 20 16 13 10 9 8 5 4 5 2 2 6 13 14 13 12 12 13 16 11
28 27 23 23 22 21 21 20 19 20 18 20 16 14 15 15 14 15 20 22 26 30 24 25 18 16 13 9 8 5 6 8 8 7 4 7 11 6 12 10 11 17 15
30 29 26 23 22 21 22 21 25 26 23 22 24 20 17 15 16 18 18 24 23 28 28 26 21 18 15 12 9 10 8 6 5 6 7 10 14 12 15 24 13 14 11
32 29 25 21 21 21 21 24 24 28 29 26 24 24 20 20 18 15 16 16 29 30 30 26 21 23 19 17 14 11 10 8 8 7 6 10 14 13 14 17 17 13 12
35 31 26 24 23 23 25 27 26 24 22 27 29 25 21 19 17 17 19 16 22 26 29 21 19 17 21 19 16 14 12 11 8 8 12 9 14 13 16 14 10 12 14
35 32 27 24 26 26 26 26 24 21 18 18 19 22 23 20 20 21 19 22 29 30 23 21 20 22 23 18 17 16 16 16 14 13 16 12 13 13 15 13 13 12 13
32 33 31 25 29 31 32 31 25 17 20 20 16 18 21 21 21 19 20 25 28 32 27 24 19 19 20 19 15 17 18 18 17 15 14 14 14 12 11 16 16 15 15
32 32 32 31 31 32 35 30 16 17 13 19 14 15 16 15 17 19 20 25 30 35 28 25 23 21 18 17 17 15 21 24 22 19 15 15 14 11 11 14 16 14 17
31 33 33 33 33 33 37 29 15 7 4 11 12 12 12 15 12 12 18 23 26 27 22 23 22 22 20 19 20 20 20 21 22 nan 19 19 14 12 14 15 13 14 17
28 31 29 33 30 32 38 25 16 4 5 7 11 13 10 15 14 11 18 23 26 26 25 26 24 21 20 20 20 20 16 16 18 17 18 19 17 19 15 16 17 18 20
Wind_Direction
326 310 346 326 286 257 247 253 286 292 296 301 308 309 313 334 349 325 315 314 334 310 264 268 262 214 204 182 181 162 86 354 4 3 1 6 11 9 10 9 14 339 3
324 308 310 310 316 281 262 264 284 296 292 298 298 303 307 329 340 348 351 342 322 344 258 271 215 224 201 194 186 191 143 313 357 351 347 1 7 3 11 20 319 341 356
323 322 331 322 326 316 287 277 289 305 310 313 300 293 290 296 324 351 5 360 12 170 182 260 209 190 197 193 188 207 254 286 322 342 23 13 354 7 5 331 335 349 350
321 325 344 327 329 318 300 290 290 294 307 303 293 278 275 270 293 332 5 24 11 139 158 313 166 173 191 186 198 221 250 276 323 31 60 314 339 359 360 343 344 343 347
342 340 325 336 333 328 317 295 289 296 304 299 289 274 272 276 265 294 332 59 18 174 190 150 153 157 185 198 209 239 243 288 351 64 165 255 309 343 342 337 342 349 3
353 351 317 355 347 345 332 311 295 288 300 297 268 262 252 247 259 265 293 82 275 199 200 200 176 177 179 218 236 268 277 280 15 250 205 240 303 326 341 348 332 328 336
337 335 328 347 347 351 354 337 310 297 293 283 256 251 268 259 261 248 268 237 213 215 215 214 222 187 182 213 246 273 294 302 53 291 281 302 295 328 332 322 331 341 348
341 331 327 333 349 339 345 335 319 304 282 262 241 245 260 245 254 262 242 240 198 213 227 208 224 210 192 216 257 274 283 107 59 303 285 278 296 324 320 322 330 341 352
341 326 318 329 339 328 343 334 327 315 297 261 252 247 238 253 252 265 237 225 188 202 220 206 220 228 232 228 265 300 319 69 30 245 313 278 303 325 316 318 325 338 349
334 330 318 316 315 323 329 340 335 322 309 292 261 248 240 236 238 243 220 207 199 206 221 222 219 240 241 236 285 315 329 64 70 268 335 259 306 322 312 315 318 333 340
332 321 311 308 307 314 319 324 329 319 276 244 260 250 229 219 221 241 214 221 198 202 213 221 226 242 255 265 270 290 322 305 304 283 277 283 303 322 319 314 308 326 333
341 327 310 300 298 293 296 290 316 296 285 297 291 283 203 193 217 210 213 206 192 197 204 217 231 237 265 262 268 302 241 191 234 242 243 289 317 325 326 315 312 319 329
331 331 318 297 291 293 283 278 273 284 292 300 309 nan 166 199 221 219 208 203 193 189 196 199 218 155 172 219 234 214 207 264 237 238 260 288 304 313 319 316 314 312 325
330 317 317 304 292 287 281 282 278 290 299 304 304 318 326 326 216 215 210 200 193 187 179 193 202 210 198 196 252 226 183 230 262 241 273 300 303 308 313 305 306 298 292
346 325 311 308 297 282 282 276 278 276 293 300 309 313 309 305 258 218 203 200 193 191 188 188 204 211 205 206 210 294 311 285 281 241 250 296 299 300 312 299 311 322 293
351 339 323 318 306 292 279 274 269 278 287 301 302 307 319 306 272 241 210 203 203 195 193 197 214 209 204 210 218 206 283 247 265 248 266 275 294 294 320 311 313 317 323
354 344 330 313 303 296 286 278 274 275 284 296 303 305 307 295 281 280 227 221 203 205 198 196 215 205 206 210 217 241 231 268 295 291 211 253 277 289 293 305 307 303 314
352 345 329 312 302 294 287 279 271 275 283 293 284 288 304 297 289 261 231 228 221 208 211 210 217 213 200 213 228 242 256 245 260 292 260 265 271 288 302 309 286 312 346
350 350 339 319 317 306 292 281 279 278 278 280 286 286 288 289 285 249 239 236 215 210 217 212 215 217 218 217 226 230 222 232 254 248 265 283 283 290 285 294 287 291 307
1 357 345 332 323 317 304 292 283 280 276 269 271 278 280 275 269 262 242 234 217 221 216 210 216 224 223 222 214 228 233 233 240 253 263 291 284 290 285 273 279 280 295
1 2 347 338 326 319 311 303 295 294 274 272 269 262 262 271 266 264 245 228 201 213 214 213 215 218 235 235 232 229 232 240 244 254 269 282 282 286 263 255 248 259 287
359 1 352 344 325 322 320 312 303 293 264 262 273 252 245 248 257 254 235 226 210 213 211 217 223 225 229 236 232 228 234 245 256 261 270 285 293 285 271 266 256 259 244
357 359 353 341 329 332 329 325 308 291 256 260 270 250 243 249 247 238 231 219 214 211 212 215 223 227 228 236 229 225 229 238 249 248 273 279 280 280 266 263 261 265 266
353 353 343 333 331 333 340 332 322 291 259 247 238 232 232 230 229 236 216 211 210 204 209 213 214 218 227 230 238 234 225 229 237 247 255 271 271 278 283 251 261 270 272
344 343 338 336 339 340 342 338 350 330 294 236 216 206 211 218 214 217 211 207 212 202 200 213 220 228 228 219 243 253 257 251 239 nan 254 271 271 278 266 272 262 258 269
337 334 341 346 336 340 347 351 359 354 174 191 189 200 212 202 199 206 203 200 212 208 207 220 217 232 219 232 241 252 258 243 237 242 244 251 252 280 284 286 285 271 269